| time (UTC) | temp F | wind direction | speed MPH | gust MPH | rain 1hr in | rain 24hr in | rain mn in | humidity % | barometer mb |
| 20260506170554 | 56 | 0 | 0.0 | 2.0 | 0.00 | 0.03 | 0.03 | 88 | 1014.2 |
| 20260506170052 | 56 | 44 | 0.0 | 2.0 | 0.00 | 0.03 | 0.03 | 87 | 1014.6 |
| 20260506165554 | 56 | 0 | 0.0 | 2.0 | 0.00 | 0.03 | 0.03 | 88 | 1014.8 |
| 20260506165057 | 55 | 0 | 0.0 | 2.0 | 0.00 | 0.03 | 0.03 | 88 | 1014.6 |
| 20260506164554 | 55 | 0 | 0.0 | 3.0 | 0.00 | 0.03 | 0.03 | 88 | 1014.3 |
| 20260506164056 | 55 | 0 | 0.0 | 3.0 | 0.00 | 0.03 | 0.03 | 89 | 1014.1 |
| 20260506163556 | 54 | 0 | 0.0 | 3.0 | 0.00 | 0.03 | 0.03 | 88 | 1014.6 |
| 20260506163106 | 54 | 0 | 0.0 | 3.0 | 0.00 | 0.03 | 0.03 | 88 | 1014.4 |
| 20260506162558 | 55 | 38 | 0.0 | 3.0 | 0.00 | 0.03 | 0.03 | 88 | 1014.7 |
| 20260506162056 | 55 | 0 | 0.0 | 3.0 | 0.00 | 0.03 | 0.03 | 89 | 1014.5 |
| 20260506161559 | 55 | 0 | 0.0 | 3.0 | 0.00 | 0.03 | 0.03 | 89 | 1014.9 |
| 20260506161055 | 55 | 344 | 0.0 | 3.0 | 0.00 | 0.03 | 0.03 | 89 | 1014.5 |
| 20260506160556 | 55 | 80 | 0.0 | 3.0 | 0.00 | 0.03 | 0.03 | 89 | 1014.3 |
| 20260506160107 | 55 | 0 | 0.0 | 3.0 | 0.00 | 0.03 | 0.03 | 89 | 1014.1 |
| 20260506155555 | 55 | 0 | 0.0 | 3.0 | 0.00 | 0.03 | 0.03 | 90 | 1014.6 |
| 20260506155055 | 55 | 0 | 0.0 | 3.0 | 0.00 | 0.03 | 0.03 | 90 | 1014.4 |
| 20260506154555 | 55 | 206 | 0.0 | 3.0 | 0.00 | 0.03 | 0.03 | 90 | 1014.0 |
| 20260506154055 | 55 | 0 | 0.0 | 4.0 | 0.00 | 0.03 | 0.03 | 90 | 1013.9 |
| 20260506153555 | 55 | 274 | 1.0 | 4.0 | 0.01 | 0.03 | 0.03 | 90 | 1013.6 |
| 20260506153055 | 55 | 333 | 0.0 | 3.0 | 0.01 | 0.03 | 0.03 | 90 | 1013.9 |
| 20260506152556 | 55 | 80 | 0.0 | 3.0 | 0.01 | 0.03 | 0.03 | 91 | 1013.8 |
| 20260506152054 | 54 | 0 | 0.0 | 3.0 | 0.02 | 0.03 | 0.03 | 90 | 1013.5 |
| 20260506151554 | 54 | 313 | 0.0 | 4.0 | 0.03 | 0.03 | 0.03 | 91 | 1013.4 |
| 20260506151056 | 54 | 0 | 0.0 | 4.0 | 0.03 | 0.03 | 0.03 | 91 | 1013.2 |
| 20260506150556 | 53 | 31 | 0.0 | 3.0 | 0.03 | 0.03 | 0.03 | 90 | 1014.3 |
| 20260506150101 | 53 | 0 | 0.0 | 3.0 | 0.03 | 0.03 | 0.03 | 90 | 1014.3 |
| 20260506145600 | 52 | 0 | 0.0 | 3.0 | 0.03 | 0.03 | 0.03 | 90 | 1015.0 |
| 20260506145055 | 52 | 40 | 0.0 | 3.0 | 0.03 | 0.03 | 0.03 | 89 | 1015.4 |
| 20260506144555 | 53 | 0 | 0.0 | 2.0 | 0.03 | 0.03 | 0.03 | 89 | 1015.5 |
| 20260506144055 | 52 | 0 | 0.0 | 3.0 | 0.03 | 0.03 | 0.03 | 89 | 1015.3 |
| 20260506143556 | 52 | 167 | 0.0 | 3.0 | 0.02 | 0.02 | 0.02 | 88 | 1014.9 |
| 20260506143057 | 53 | 0 | 0.0 | 3.0 | 0.02 | 0.02 | 0.02 | 88 | 1014.4 |
| 20260506142554 | 53 | 333 | 0.0 | 3.0 | 0.02 | 0.02 | 0.02 | 87 | 1014.4 |
| 20260506142054 | 53 | 0 | 0.0 | 3.0 | 0.01 | 0.01 | 0.01 | 86 | 1014.9 |
| 20260506141556 | 54 | 0 | 0.0 | 2.0 | 0.00 | 0.00 | 0.00 | 85 | 1016.1 |
| 20260506141054 | 54 | 78 | 0.0 | 2.0 | 0.00 | 0.00 | 0.00 | 84 | 1016.3 |
| 20260506140559 | 54 | 0 | 0.0 | 2.0 | 0.00 | 0.00 | 0.00 | 84 | 1016.7 |
| 20260506140054 | 54 | 17 | 0.0 | 4.0 | 0.00 | 0.00 | 0.00 | 84 | 1014.9 |
| 20260506135557 | 54 | 0 | 0.0 | 5.0 | 0.00 | 0.00 | 0.00 | 84 | 1013.8 |
| 20260506135107 | 54 | 0 | 0.0 | 5.0 | 0.00 | 0.00 | 0.00 | 83 | 1012.9 |
| 20260506134616 | 54 | 227 | 1.0 | 3.0 | 0.00 | 0.00 | 0.00 | 83 | 1013.4 |
| 20260506134100 | 54 | 53 | 0.0 | 3.0 | 0.00 | 0.00 | 0.00 | 83 | 1014.0 |
| 20260506133556 | 54 | 87 | 0.0 | 3.0 | 0.00 | 0.00 | 0.00 | 82 | 1014.3 |
| 20260506133056 | 54 | 0 | 0.0 | 3.0 | 0.00 | 0.00 | 0.00 | 82 | 1014.2 |
| 20260506132555 | 55 | 0 | 0.0 | 3.0 | 0.00 | 0.00 | 0.00 | 82 | 1014.0 |
| 20260506132055 | 55 | 88 | 0.0 | 3.0 | 0.00 | 0.00 | 0.00 | 82 | 1014.0 |
| 20260506131609 | 55 | 0 | 0.0 | 3.0 | 0.00 | 0.00 | 0.00 | 82 | 1013.9 |
| 20260506131054 | 55 | 0 | 0.0 | 2.0 | 0.00 | 0.00 | 0.00 | 82 | 1013.6 |
| 20260506130555 | 55 | 77 | 0.0 | 2.0 | 0.00 | 0.00 | 0.00 | 81 | 1013.6 |
| 20260506130057 | 55 | 36 | 0.0 | 2.0 | 0.00 | 0.00 | 0.00 | 81 | 1013.5 |
| 20260506125554 | 56 | 302 | 0.0 | 3.0 | 0.00 | 0.00 | 0.00 | 81 | 1013.1 |
| 20260506125055 | 56 | 0 | 0.0 | 3.0 | 0.00 | 0.00 | 0.00 | 82 | 1013.1 |
| 20260506124555 | 56 | 0 | 0.0 | 3.0 | 0.00 | 0.00 | 0.00 | 81 | 1013.0 |
| 20260506124057 | 56 | 54 | 0.0 | 3.0 | 0.00 | 0.00 | 0.00 | 81 | 1012.7 |
| 20260506123556 | 56 | 23 | 0.0 | 2.0 | 0.00 | 0.00 | 0.00 | 81 | 1012.5 |
| 20260506123055 | 56 | 0 | 0.0 | 3.0 | 0.00 | 0.00 | 0.00 | 81 | 1012.8 |
| 20260506122556 | 57 | 144 | 0.0 | 3.0 | 0.00 | 0.00 | 0.00 | 81 | 1012.7 |
| 20260506122055 | 57 | 57 | 0.0 | 2.0 | 0.00 | 0.00 | 0.00 | 81 | 1012.5 |
| 20260506121606 | 57 | 0 | 0.0 | 3.0 | 0.00 | 0.00 | 0.00 | 81 | 1012.5 |
| 20260506121056 | 57 | 58 | 0.0 | 3.0 | 0.00 | 0.00 | 0.00 | 81 | 1012.3 |
| 20260506120556 | 57 | 27 | 0.0 | 3.0 | 0.00 | 0.00 | 0.00 | 80 | 1012.4 |
| 20260506120059 | 58 | 143 | 0.0 | 3.0 | 0.00 | 0.00 | 0.00 | 80 | 1012.1 |
| 20260506115554 | 58 | 0 | 0.0 | 2.0 | 0.00 | 0.00 | 0.00 | 80 | 1012.0 |
| 20260506115054 | 58 | 0 | 0.0 | 2.0 | 0.00 | 0.00 | 0.00 | 80 | 1012.3 |
| 20260506114556 | 58 | 0 | 0.0 | 2.0 | 0.00 | 0.00 | 0.00 | 80 | 1012.2 |
| 20260506114054 | 58 | 0 | 0.0 | 2.0 | 0.00 | 0.00 | 0.00 | 80 | 1012.0 |
| 20260506113554 | 58 | 303 | 0.0 | 3.0 | 0.00 | 0.00 | 0.00 | 80 | 1012.2 |
| 20260506113054 | 58 | 0 | 0.0 | 3.0 | 0.00 | 0.00 | 0.00 | 79 | 1012.1 |
| 20260506112555 | 58 | 0 | 0.0 | 2.0 | 0.00 | 0.00 | 0.00 | 79 | 1012.1 |
| 20260506112054 | 58 | 187 | 0.0 | 4.0 | 0.00 | 0.00 | 0.00 | 79 | 1011.9 |
| 20260506111611 | 58 | 5 | 0.0 | 4.0 | 0.00 | 0.00 | 0.00 | 79 | 1011.8 |
| 20260506111057 | 58 | 0 | 0.0 | 3.0 | 0.00 | 0.00 | 0.00 | 79 | 1011.9 |
| 20260506110556 | 58 | 360 | 0.0 | 2.0 | 0.00 | 0.00 | 0.00 | 80 | 1011.7 |
| 20260506110057 | 58 | 0 | 0.0 | 4.0 | 0.00 | 0.00 | 0.00 | 80 | 1011.6 |
| 20260506105556 | 59 | 0 | 0.0 | 4.0 | 0.00 | 0.00 | 0.00 | 80 | 1011.4 |
| 20260506105056 | 59 | 21 | 0.0 | 3.0 | 0.00 | 0.00 | 0.00 | 80 | 1011.2 |
| 20260506104554 | 59 | 40 | 0.0 | 4.0 | 0.00 | 0.00 | 0.00 | 80 | 1011.4 |
| 20260506104055 | 59 | 331 | 0.0 | 4.0 | 0.00 | 0.00 | 0.00 | 80 | 1011.3 |
| 20260506103557 | 59 | 0 | 0.0 | 3.0 | 0.00 | 0.00 | 0.00 | 81 | 1011.2 |
| 20260506103104 | 59 | 0 | 0.0 | 3.0 | 0.00 | 0.00 | 0.00 | 81 | 1010.9 |
| 20260506102557 | 59 | 0 | 0.0 | 3.0 | 0.00 | 0.00 | 0.00 | 81 | 1010.7 |
| 20260506102057 | 59 | 13 | 0.0 | 2.0 | 0.00 | 0.00 | 0.00 | 81 | 1010.8 |
| 20260506101558 | 59 | 0 | 0.0 | 2.0 | 0.00 | 0.00 | 0.00 | 81 | 1010.6 |
| 20260506101057 | 59 | 0 | 0.0 | 1.0 | 0.00 | 0.00 | 0.00 | 81 | 1010.7 |
| 20260506100556 | 59 | 0 | 0.0 | 1.0 | 0.00 | 0.00 | 0.00 | 81 | 1010.7 |
| 20260506100105 | 59 | 0 | 0.0 | 2.0 | 0.00 | 0.00 | 0.00 | 81 | 1010.5 |
| 20260506095556 | 59 | 0 | 0.0 | 2.0 | 0.00 | 0.00 | 0.00 | 81 | 1010.4 |
| 20260506095056 | 59 | 0 | 0.0 | 2.0 | 0.00 | 0.00 | 0.00 | 81 | 1010.4 |
| 20260506094602 | 60 | 352 | 0.0 | 3.0 | 0.00 | 0.00 | 0.00 | 81 | 1010.2 |
| 20260506094055 | 60 | 0 | 0.0 | 3.0 | 0.00 | 0.00 | 0.00 | 82 | 1010.2 |
| 20260506093559 | 60 | 0 | 0.0 | 3.0 | 0.00 | 0.00 | 0.00 | 82 | 1010.2 |
| 20260506093100 | 60 | 0 | 0.0 | 2.0 | 0.00 | 0.00 | 0.00 | 82 | 1010.2 |
| 20260506092557 | 60 | 0 | 0.0 | 2.0 | 0.00 | 0.00 | 0.00 | 82 | 1009.9 |
| 20260506092100 | 60 | 0 | 0.0 | 1.0 | 0.00 | 0.00 | 0.00 | 82 | 1010.1 |
| 20260506091610 | 60 | 360 | 0.0 | 2.0 | 0.00 | 0.00 | 0.00 | 82 | 1010.0 |
| 20260506091056 | 60 | 61 | 0.0 | 2.0 | 0.00 | 0.00 | 0.00 | 82 | 1010.2 |
| 20260506090557 | 60 | 0 | 0.0 | 2.0 | 0.00 | 0.00 | 0.00 | 82 | 1010.1 |
| 20260506090100 | 60 | 0 | 0.0 | 2.0 | 0.00 | 0.00 | 0.00 | 82 | 1010.1 |
| 20260506085555 | 60 | 0 | 0.0 | 2.0 | 0.00 | 0.00 | 0.00 | 82 | 1010.1 |
| 20260506085055 | 61 | 0 | 0.0 | 2.0 | 0.00 | 0.00 | 0.00 | 82 | 1010.0 |
| 20260506084605 | 61 | 0 | 0.0 | 2.0 | 0.00 | 0.00 | 0.00 | 82 | 1010.0 |
| 20260506084056 | 61 | 0 | 0.0 | 2.0 | 0.00 | 0.00 | 0.00 | 81 | 1010.1 |
| 20260506083555 | 61 | 0 | 0.0 | 3.0 | 0.00 | 0.00 | 0.00 | 81 | 1010.0 |
| 20260506083114 | 61 | 0 | 0.0 | 3.0 | 0.00 | 0.00 | 0.00 | 81 | 1009.9 |
| 20260506082557 | 61 | 56 | 0.0 | 3.0 | 0.00 | 0.00 | 0.00 | 81 | 1010.0 |
| 20260506082057 | 61 | 326 | 0.0 | 2.0 | 0.00 | 0.00 | 0.00 | 81 | 1009.8 |
| 20260506081554 | 61 | 0 | 0.0 | 2.0 | 0.00 | 0.00 | 0.00 | 81 | 1009.8 |
| 20260506081056 | 61 | 0 | 0.0 | 2.0 | 0.00 | 0.00 | 0.00 | 82 | 1009.7 |
| 20260506080557 | 61 | 254 | 0.0 | 5.0 | 0.00 | 0.00 | 0.00 | 81 | 1009.9 |
| 20260506073056 | 62 | 294 | 0.0 | 2.0 | 0.00 | 0.00 | 0.00 | 81 | 1009.5 |
| 20260506072554 | 62 | 0 | 0.0 | 2.0 | 0.00 | 0.00 | 0.00 | 81 | 1009.5 |
| 20260506072054 | 62 | 0 | 0.0 | 2.0 | 0.00 | 0.00 | 0.00 | 81 | 1009.5 |
| 20260506071600 | 62 | 0 | 0.0 | 2.0 | 0.00 | 0.00 | 0.00 | 81 | 1009.5 |
| 20260506071054 | 62 | 0 | 0.0 | 2.0 | 0.00 | 0.00 | 0.00 | 81 | 1009.3 |
| 20260506070554 | 62 | 0 | 0.0 | 1.0 | 0.00 | 0.00 | 0.00 | 81 | 1009.5 |
| 20260506070127 | 62 | 0 | 0.0 | 2.0 | 0.00 | 0.00 | 0.00 | 81 | 1009.2 |
| 20260506062055 | 62 | 0 | 0.0 | 2.0 | 0.00 | 0.00 | 0.00 | 80 | 1009.2 |
| 20260506061557 | 62 | 317 | 0.0 | 2.0 | 0.00 | 0.00 | 0.00 | 80 | 1009.2 |
| 20260506061056 | 63 | 0 | 0.0 | 2.0 | 0.00 | 0.00 | 0.00 | 79 | 1009.1 |
| 20260506060555 | 63 | 0 | 0.0 | 2.0 | 0.00 | 0.00 | 0.00 | 79 | 1009.1 |
| 20260506060104 | 63 | 0 | 0.0 | 2.0 | 0.00 | 0.00 | 0.00 | 79 | 1009.2 |
| 20260506051057 | 65 | 333 | 0.0 | 3.0 | 0.00 | 0.00 | 0.00 | 77 | 1009.2 |
| 20260506050555 | 65 | 0 | 0.0 | 2.0 | 0.00 | 0.00 | 0.00 | 77 | 1009.2 |
| 20260506050109 | 65 | 0 | 0.0 | 2.0 | 0.00 | 0.00 | 0.00 | 77 | 1009.4 |
| 20260506045059 | 66 | 71 | 0.0 | 2.0 | 0.00 | 0.00 | 0.00 | 77 | 1009.1 |
| 20260506044601 | 66 | 9 | 0.0 | 2.0 | 0.00 | 0.00 | 0.00 | 77 | 1009.0 |
| 20260506044055 | 66 | 0 | 0.0 | 2.0 | 0.00 | 0.00 | 0.00 | 77 | 1009.0 |
| 20260506043554 | 66 | 0 | 0.0 | 2.0 | 0.00 | 0.00 | 0.00 | 76 | 1009.0 |
| 20260506043057 | 66 | 0 | 0.0 | 2.0 | 0.00 | 0.00 | 0.00 | 76 | 1009.0 |
| 20260506042556 | 66 | 0 | 0.0 | 2.0 | 0.00 | 0.00 | 0.00 | 76 | 1009.2 |
| 20260506042055 | 67 | 0 | 0.0 | 2.0 | 0.00 | 0.00 | 0.00 | 76 | 1008.9 |
| 20260506041602 | 67 | 351 | 0.0 | 2.0 | 0.00 | 0.00 | 0.00 | 75 | 1009.1 |
| 20260506041055 | 67 | 0 | 0.0 | 3.0 | 0.00 | 0.00 | 0.00 | 75 | 1009.2 |
| 20260506040557 | 67 | 0 | 0.0 | 3.0 | 0.00 | 0.00 | 0.00 | 75 | 1009.1 |
| 20260506040100 | 68 | 0 | 0.0 | 3.0 | 0.00 | 0.00 | 0.00 | 75 | 1009.2 |
| 20260506035554 | 68 | 0 | 0.0 | 3.0 | 0.00 | 0.00 | 0.00 | 75 | 1009.2 |
| 20260506035054 | 68 | 0 | 0.0 | 3.0 | 0.00 | 0.00 | 0.00 | 74 | 1009.1 |
| 20260506034601 | 68 | 23 | 0.0 | 3.0 | 0.00 | 0.00 | 0.00 | 74 | 1009.1 |
| 20260506034054 | 68 | 0 | 0.0 | 3.0 | 0.00 | 0.00 | 0.00 | 74 | 1008.8 |
| 20260506033555 | 68 | 333 | 0.0 | 2.0 | 0.00 | 0.00 | 0.00 | 74 | 1008.7 |
| 20260506033058 | 69 | 0 | 0.0 | 2.0 | 0.00 | 0.00 | 0.00 | 74 | 1008.7 |
| 20260506032557 | 69 | 0 | 0.0 | 2.0 | 0.00 | 0.00 | 0.00 | 74 | 1008.7 |
| 20260506032057 | 68 | 69 | 0.0 | 4.0 | 0.00 | 0.00 | 0.00 | 74 | 1008.5 |
| 20260506031603 | 68 | 0 | 0.0 | 4.0 | 0.00 | 0.00 | 0.00 | 74 | 1008.3 |
| 20260506031055 | 69 | 44 | 0.0 | 2.0 | 0.00 | 0.00 | 0.00 | 74 | 1008.0 |
| 20260506030554 | 69 | 0 | 0.0 | 3.0 | 0.00 | 0.00 | 0.00 | 74 | 1007.8 |
| 20260506030100 | 69 | 5 | 0.0 | 3.0 | 0.00 | 0.00 | 0.00 | 74 | 1007.7 |
| 20260506025556 | 69 | 0 | 0.0 | 2.0 | 0.00 | 0.00 | 0.00 | 75 | 1007.7 |
| 20260506025054 | 70 | 296 | 0.0 | 4.0 | 0.00 | 0.00 | 0.00 | 74 | 1007.3 |
| 20260506024600 | 70 | 0 | 0.0 | 4.0 | 0.00 | 0.00 | 0.00 | 74 | 1007.2 |
| 20260506024054 | 70 | 40 | 0.0 | 2.0 | 0.00 | 0.00 | 0.00 | 73 | 1007.4 |
| 20260506023555 | 71 | 0 | 0.0 | 3.0 | 0.00 | 0.00 | 0.00 | 72 | 1007.5 |
| 20260506023055 | 71 | 13 | 0.0 | 3.0 | 0.00 | 0.00 | 0.00 | 72 | 1007.2 |
| 20260506022555 | 72 | 0 | 0.0 | 3.0 | 0.00 | 0.00 | 0.00 | 71 | 1007.1 |
| 20260506022054 | 72 | 0 | 0.0 | 3.0 | 0.00 | 0.00 | 0.00 | 71 | 1007.1 |
| 20260506021555 | 72 | 178 | 0.0 | 3.0 | 0.00 | 0.00 | 0.00 | 71 | 1006.8 |
| 20260506021056 | 72 | 0 | 0.0 | 5.0 | 0.00 | 0.00 | 0.00 | 71 | 1006.8 |
| 20260506020553 | 72 | 0 | 0.0 | 5.0 | 0.00 | 0.00 | 0.00 | 71 | 1006.7 |
| 20260506020107 | 72 | 38 | 1.0 | 5.0 | 0.00 | 0.00 | 0.00 | 71 | 1006.5 |
| 20260506015555 | 73 | 0 | 0.0 | 1.0 | 0.00 | 0.00 | 0.00 | 71 | 1006.5 |
| 20260506015055 | 73 | 0 | 0.0 | 2.0 | 0.00 | 0.00 | 0.00 | 71 | 1006.2 |
| 20260506014611 | 72 | 71 | 0.0 | 2.0 | 0.00 | 0.00 | 0.00 | 71 | 1006.3 |
| 20260506014054 | 73 | 0 | 0.0 | 2.0 | 0.00 | 0.00 | 0.00 | 71 | 1005.9 |
| 20260506013554 | 73 | 0 | 0.0 | 3.0 | 0.00 | 0.00 | 0.00 | 71 | 1005.7 |
| 20260506013055 | 73 | 0 | 0.0 | 3.0 | 0.00 | 0.00 | 0.00 | 70 | 1005.6 |
| 20260506012554 | 73 | 0 | 0.0 | 3.0 | 0.00 | 0.00 | 0.00 | 70 | 1005.4 |
| 20260506012055 | 73 | 0 | 0.0 | 2.0 | 0.00 | 0.00 | 0.00 | 70 | 1005.4 |
| 20260506011617 | 74 | 0 | 0.0 | 3.0 | 0.00 | 0.00 | 0.00 | 69 | 1005.2 |
| 20260506011055 | 74 | 0 | 0.0 | 3.0 | 0.00 | 0.00 | 0.00 | 69 | 1005.3 |
| 20260506010557 | 75 | 277 | 0.0 | 2.0 | 0.00 | 0.00 | 0.00 | 69 | 1005.1 |
| 20260506010054 | 75 | 0 | 0.0 | 2.0 | 0.00 | 0.00 | 0.00 | 69 | 1005.1 |
| 20260506005555 | 76 | 0 | 0.0 | 2.0 | 0.00 | 0.00 | 0.00 | 68 | 1005.2 |
| 20260506005054 | 76 | 0 | 0.0 | 2.0 | 0.00 | 0.00 | 0.00 | 68 | 1005.3 |
| 20260506004603 | 76 | 189 | 0.0 | 2.0 | 0.00 | 0.00 | 0.00 | 67 | 1005.1 |
| 20260506004054 | 77 | 18 | 0.0 | 4.0 | 0.00 | 0.00 | 0.00 | 66 | 1004.9 |
| 20260506003554 | 77 | 0 | 0.0 | 4.0 | 0.00 | 0.00 | 0.00 | 66 | 1004.6 |
| 20260506003056 | 78 | 0 | 0.0 | 4.0 | 0.00 | 0.00 | 0.00 | 66 | 1004.6 |
| 20260506002554 | 78 | 0 | 0.0 | 3.0 | 0.00 | 0.00 | 0.00 | 66 | 1004.6 |
| 20260506002054 | 79 | 0 | 0.0 | 3.0 | 0.00 | 0.00 | 0.00 | 66 | 1004.6 |
| 20260506001556 | 79 | 0 | 0.0 | 3.0 | 0.00 | 0.00 | 0.00 | 66 | 1004.4 |
| 20260506001054 | 80 | 84 | 0.0 | 3.0 | 0.00 | 0.00 | 0.00 | 65 | 1004.4 |
| 20260506000554 | 82 | 0 | 0.0 | 4.0 | 0.00 | 0.00 | 0.00 | 65 | 1004.5 |
| 20260506000117 | 82 | 340 | 0.0 | 4.0 | 0.00 | 0.00 | 0.00 | 63 | 1004.3 |
| 20260505235555 | 83 | 27 | 0.0 | 2.0 | 0.00 | 0.00 | 0.00 | 62 | 1004.2 |
| 20260505235055 | 84 | 302 | 0.0 | 3.0 | 0.00 | 0.00 | 0.00 | 61 | 1004.2 |
| 20260505234555 | 84 | 0 | 0.0 | 3.0 | 0.00 | 0.00 | 0.00 | 60 | 1003.8 |
| 20260505234055 | 85 | 51 | 0.0 | 3.0 | 0.00 | 0.00 | 0.00 | 58 | 1003.7 |
| 20260505233555 | 87 | 243 | 0.0 | 3.0 | 0.00 | 0.00 | 0.00 | 55 | 1003.5 |
| 20260505233057 | 87 | 0 | 0.0 | 1.0 | 0.00 | 0.00 | 0.00 | 57 | 1003.4 |
| 20260505232554 | 88 | 0 | 0.0 | 2.0 | 0.00 | 0.00 | 0.00 | 55 | 1003.2 |
| 20260505232055 | 89 | 165 | 0.0 | 3.0 | 0.00 | 0.00 | 0.00 | 54 | 1003.1 |
| 20260505231611 | 90 | 0 | 0.0 | 3.0 | 0.00 | 0.00 | 0.00 | 50 | 1003.1 |
| 20260505231054 | 90 | 215 | 0.0 | 2.0 | 0.00 | 0.00 | 0.00 | 49 | 1003.2 |
| 20260505230554 | 90 | 0 | 0.0 | 2.0 | 0.00 | 0.00 | 0.00 | 50 | 1003.2 |
| 20260505230107 | 90 | 0 | 0.0 | 2.0 | 0.00 | 0.00 | 0.00 | 50 | 1003.1 |
| 20260505225556 | 90 | 0 | 0.0 | 2.0 | 0.00 | 0.00 | 0.00 | 51 | 1003.0 |
| 20260505225054 | 90 | 0 | 0.0 | 1.0 | 0.00 | 0.00 | 0.00 | 51 | 1003.2 |
| 20260505224558 | 90 | 0 | 0.0 | 1.0 | 0.00 | 0.00 | 0.00 | 49 | 1003.2 |
| 20260505224054 | 90 | 0 | 0.0 | 1.0 | 0.00 | 0.00 | 0.00 | 51 | 1003.2 |
| 20260505223558 | 91 | 29 | 0.0 | 1.0 | 0.00 | 0.00 | 0.00 | 50 | 1003.2 |
| 20260505223101 | 91 | 0 | 0.0 | 2.0 | 0.00 | 0.00 | 0.00 | 47 | 1003.3 |
| 20260505222554 | 91 | 0 | 0.0 | 2.0 | 0.00 | 0.00 | 0.00 | 46 | 1003.1 |
| 20260505222054 | 91 | 66 | 0.0 | 2.0 | 0.00 | 0.00 | 0.00 | 46 | 1003.1 |
| 20260505221601 | 92 | 200 | 0.0 | 2.0 | 0.00 | 0.00 | 0.00 | 46 | 1003.1 |
| 20260505221055 | 91 | 0 | 0.0 | 2.0 | 0.00 | 0.00 | 0.00 | 47 | 1003.1 |
| 20260505220555 | 91 | 0 | 0.0 | 2.0 | 0.00 | 0.00 | 0.00 | 46 | 1002.9 |
| 20260505220058 | 92 | 0 | 0.0 | 2.0 | 0.00 | 0.00 | 0.00 | 48 | 1003.2 |
| 20260505215555 | 91 | 46 | 0.0 | 2.0 | 0.00 | 0.00 | 0.00 | 49 | 1003.1 |
| 20260505215057 | 91 | 0 | 0.0 | 2.0 | 0.00 | 0.00 | 0.00 | 46 | 1002.9 |
| 20260505214556 | 92 | 56 | 0.0 | 3.0 | 0.00 | 0.00 | 0.00 | 46 | 1003.1 |
| 20260505214100 | 93 | 22 | 0.0 | 3.0 | 0.00 | 0.00 | 0.00 | 49 | 1003.2 |
| 20260505213558 | 92 | 35 | 0.0 | 2.0 | 0.00 | 0.00 | 0.00 | 50 | 1003.2 |
| 20260505213057 | 93 | 0 | 0.0 | 2.0 | 0.00 | 0.00 | 0.00 | 46 | 1003.0 |
| 20260505212559 | 93 | 0 | 0.0 | 4.0 | 0.00 | 0.00 | 0.00 | 49 | 1003.3 |
| 20260505212056 | 92 | 0 | 0.0 | 4.0 | 0.00 | 0.00 | 0.00 | 47 | 1003.4 |
| 20260505211558 | 92 | 0 | 0.0 | 4.0 | 0.00 | 0.00 | 0.00 | 51 | 1003.3 |
| 20260505211056 | 92 | 0 | 0.0 | 3.0 | 0.00 | 0.00 | 0.00 | 48 | 1003.2 |
| 20260505210557 | 93 | 68 | 0.0 | 4.0 | 0.00 | 0.00 | 0.00 | 49 | 1003.3 |
| 20260505210054 | 93 | 99 | 0.0 | 4.0 | 0.00 | 0.00 | 0.00 | 48 | 1003.5 |
| 20260505205557 | 93 | 34 | 0.0 | 4.0 | 0.00 | 0.00 | 0.00 | 46 | 1003.5 |
| 20260505205056 | 93 | 0 | 0.0 | 4.0 | 0.00 | 0.00 | 0.00 | 47 | 1003.5 |
| 20260505204600 | 93 | 45 | 0.0 | 3.0 | 0.00 | 0.00 | 0.00 | 48 | 1003.8 |
| 20260505204057 | 93 | 97 | 0.0 | 3.0 | 0.00 | 0.00 | 0.00 | 47 | 1003.9 |
| 20260505203556 | 93 | 0 | 0.0 | 3.0 | 0.00 | 0.00 | 0.00 | 49 | 1003.9 |
| 20260505203102 | 92 | 79 | 0.0 | 4.0 | 0.00 | 0.00 | 0.00 | 49 | 1003.9 |
| 20260505202557 | 92 | 82 | 0.0 | 4.0 | 0.00 | 0.00 | 0.00 | 49 | 1003.7 |
| 20260505202056 | 92 | 54 | 0.0 | 3.0 | 0.00 | 0.00 | 0.00 | 52 | 1003.8 |
| 20260505201557 | 92 | 113 | 0.0 | 3.0 | 0.00 | 0.00 | 0.00 | 52 | 1004.1 |
| 20260505201057 | 92 | 44 | 0.0 | 3.0 | 0.00 | 0.00 | 0.00 | 50 | 1004.2 |
| 20260505200557 | 93 | 16 | 0.0 | 3.0 | 0.00 | 0.00 | 0.00 | 51 | 1004.2 |
| 20260505200056 | 93 | 76 | 0.0 | 3.0 | 0.00 | 0.00 | 0.00 | 49 | 1004.3 |
| 20260505195558 | 92 | 0 | 0.0 | 3.0 | 0.00 | 0.00 | 0.00 | 51 | 1004.3 |
| 20260505195056 | 92 | 0 | 0.0 | 3.0 | 0.00 | 0.00 | 0.00 | 51 | 1004.4 |
| 20260505194617 | 92 | 49 | 0.0 | 3.0 | 0.00 | 0.00 | 0.00 | 50 | 1004.2 |
| 20260505194056 | 91 | 78 | 0.0 | 3.0 | 0.00 | 0.00 | 0.00 | 57 | 1004.3 |
| 20260505193557 | 92 | 72 | 0.0 | 4.0 | 0.00 | 0.00 | 0.00 | 53 | 1004.3 |
| 20260505193059 | 92 | 0 | 0.0 | 4.0 | 0.00 | 0.00 | 0.00 | 57 | 1004.4 |
| 20260505192556 | 91 | 58 | 1.0 | 5.0 | 0.00 | 0.00 | 0.00 | 54 | 1004.4 |
| 20260505192056 | 91 | 86 | 1.0 | 5.0 | 0.00 | 0.00 | 0.00 | 53 | 1004.5 |
| 20260505191608 | 91 | 0 | 1.0 | 4.0 | 0.00 | 0.00 | 0.00 | 53 | 1004.7 |
| 20260505191057 | 91 | 0 | 1.0 | 4.0 | 0.00 | 0.00 | 0.00 | 55 | 1004.6 |
| 20260505190556 | 91 | 60 | 0.0 | 4.0 | 0.00 | 0.00 | 0.00 | 57 | 1004.7 |
| 20260505190057 | 90 | 90 | 0.0 | 3.0 | 0.00 | 0.00 | 0.00 | 59 | 1004.6 |
| 20260505185556 | 90 | 89 | 0.0 | 2.0 | 0.00 | 0.00 | 0.00 | 58 | 1004.7 |
| 20260505185057 | 90 | 46 | 0.0 | 2.0 | 0.00 | 0.00 | 0.00 | 60 | 1004.6 |
| 20260505184556 | 90 | 0 | 0.0 | 3.0 | 0.00 | 0.00 | 0.00 | 58 | 1004.8 |
| 20260505184057 | 89 | 0 | 0.0 | 4.0 | 0.00 | 0.00 | 0.00 | 62 | 1004.8 |
| 20260505183556 | 89 | 0 | 1.0 | 4.0 | 0.00 | 0.00 | 0.00 | 58 | 1004.9 |
| 20260505183100 | 89 | 0 | 0.0 | 4.0 | 0.00 | 0.00 | 0.00 | 59 | 1005.0 |
| 20260505182557 | 89 | 0 | 0.0 | 4.0 | 0.00 | 0.00 | 0.00 | 63 | 1005.0 |
| 20260505182100 | 88 | 50 | 0.0 | 4.0 | 0.00 | 0.00 | 0.00 | 63 | 1005.2 |
| 20260505181556 | 88 | 0 | 1.0 | 4.0 | 0.00 | 0.00 | 0.00 | 62 | 1005.3 |
| 20260505181100 | 89 | 0 | 0.0 | 4.0 | 0.00 | 0.00 | 0.00 | 62 | 1005.1 |
| 20260505180556 | 88 | 64 | 0.0 | 5.0 | 0.00 | 0.00 | 0.00 | 62 | 1005.1 |
| 20260505180100 | 87 | 346 | 0.0 | 5.0 | 0.00 | 0.00 | 0.00 | 64 | 1005.3 |
| 20260505175556 | 88 | 352 | 0.0 | 5.0 | 0.00 | 0.00 | 0.00 | 63 | 1005.3 |
| 20260505175056 | 88 | 61 | 1.0 | 5.0 | 0.00 | 0.00 | 0.00 | 63 | 1005.4 |
| 20260505174558 | 88 | 79 | 0.0 | 4.0 | 0.00 | 0.00 | 0.00 | 66 | 1005.3 |
| 20260505174056 | 88 | 49 | 1.0 | 4.0 | 0.00 | 0.00 | 0.00 | 65 | 1005.3 |
| 20260505173556 | 87 | 326 | 1.0 | 4.0 | 0.00 | 0.00 | 0.00 | 65 | 1005.4 |
| 20260505173113 | 87 | 109 | 1.0 | 2.0 | 0.00 | 0.00 | 0.00 | 66 | 1005.5 |
| 20260505172556 | 86 | 60 | 0.0 | 6.0 | 0.00 | 0.00 | 0.00 | 69 | 1005.5 |
| 20260505172056 | 84 | 0 | 1.0 | 6.0 | 0.00 | 0.00 | 0.00 | 69 | 1005.6 |
| 20260505171618 | 84 | 85 | 0.0 | 6.0 | 0.00 | 0.00 | 0.00 | 68 | 1005.4 |
| 20260505171056 | 84 | 78 | 1.0 | 6.0 | 0.00 | 0.00 | 0.00 | 69 | 1005.3 |